Regional Weather Roundup
Issued by NWS

Home | Current Version | Previous Version | Text Only | Print | Product List | Glossary On
Versions: 1 2 3 4 5 6 7 8 9 10 11 12 13 14 15 16 17 18 19 20 21 22 23 24 25 26 27 28 29 30 31 32 33 34 35 36 37 38 39 40 41 42 43 44 45 46 47 48 49 50
000
ASUS44 KEWX 221003
RWRTX
SOUTH TEXAS REGIONAL WEATHER ROUNDUP
NATIONAL WEATHER SERVICE AUSTIN/SAN ANTONIO TX
400 AM CST WED FEB 22 2017

NOTE: "FAIR" INDICATED FEW OR NO CLOUDS BELOW 12,000 FEET WITH NO
SIGNIFICANT WEATHER AND/OR OBSTRUCTIONS TO VISIBILITY.

* - THESE STATIONS ARE NOT NWS OR FAA STATIONS...AND ARE NOT SUBJECT
    TO NWS AND FAA QUALITY CONTROL.

TXZ171-172-183>190-221100-
TEXAS HILL COUNTRY AND EDWARDS PLATEAU

CITY           SKY/WX    TMP DP  RH WIND       PRES   REMARKS
JUNCTION       PTCLDY    42  40  92 W3        29.99S
*LLANO         CLEAR     45  41  87 CALM      30.00S
BURNET         CLEAR     51  39  63 CALM      29.98S
*HORSESHOE BAY CLEAR     43  41  93 CALM      29.96S
*KERRVILLE     CLEAR     44  41  90 CALM      29.98F
*FREDERICKSBRG CLEAR     44  38  79 W5        29.99S WCI  41
*ROCKSPRINGS   PTCLDY    61  32  33 CALM      30.03S
*BOERNE STAGE  CLEAR     45  36  70 CALM      29.98S
*CASTROVILLE   CLEAR     51  43  74 NW10      29.96F
HONDO          CLEAR     47  42  83 N7        29.96F WCI  44
*UVALDE        CLEAR     50  42  73 CALM      29.97S
DEL RIO        CLEAR     49  42  77 CALM      29.96F
LAUGHLIN AFB   NOT AVBL
CARRIZO SPRGS  CLEAR     54  39  58 CALM      29.95S
*EAGLE PASS    SUNNY     54  37  54 N7        29.96S
$$

TXZ173-191>194-202-209-217>225-228-221100-
CENTRAL AND SOUTH CENTRAL TEXAS

CITY           SKY/WX    TMP DP  RH WIND       PRES   REMARKS
GEORGETOWN     CLEAR     45  37  76 W3        29.95S
AUSTIN/BERGSTM CLEAR     50  42  74 W6        29.95S WCI  48
AUSTIN/MABRY   CLEAR     56  42  59 NW5       29.96S
*AUSTIN/EXEC   CLEAR     54  39  58 NW7       29.95S
*LAGO VISTA    CLEAR     53  44  70 W8        29.97R
SAN MARCOS     CLEAR     46  39  76 NW5       29.96S WCI  44
NEW BRAUNFELS  CLEAR     51  40  65 NE5       29.94F
RANDOLPH AFB   CLEAR     49  41  74 NW8       29.94F WCI  46
PT SAN ANTONIO CLEAR     50  42  75 NW5       29.93S WCI  48
SAN ANTONIO    CLEAR     53  39  59 NW6       29.95F
STINSON FIELD  CLEAR     51  43  74 CALM      29.93F
*PLEASANTON    CLEAR     49  43  79 CALM      29.95S
*LA GRANGE     CLEAR     47  45  92 CALM      29.92S
*GIDDINGS      CLEAR     48  42  81 NW5       29.94S WCI  46
*GONZALES      CLEAR     48  45  88 NW3       29.95R
$$

TXZ163>164-176>182-195>201-210>213-226-227-235-221100-
SOUTHEAST TEXAS

CITY           SKY/WX    TMP DP  RH WIND       PRES   REMARKS
COLLEGE STN    CLEAR     53  46  77 CALM      29.92S
*BRYAN         CLEAR     53  46  76 W6        29.94R
*CALDWELL      NOT AVBL
*CROCKETT        N/A    N/A N/A N/A MISG        N/A
*BRENHAM       CLEAR     49  48  94 CALM      29.93S
HUNTSVILLE     CLEAR     51  46  83 CALM      29.90F
CONROE         CLEAR     47  45  93 CALM      29.90S
HOUSTON BUSH   CLEAR     56  48  74 W7        29.90S
HOUSTON HOBBY  CLEAR     56  49  77 CALM      29.89S
*HOUSTON SW AP CLEAR     53  49  85 CALM      29.91S
PEARLAND       CLEAR     56  49  77 CALM      29.91S
HOUSTON HOOKS  CLEAR     57  47  69 NW3       29.91S
ELLINGTON FLD  CLEAR     59  50  72 CALM      29.92
SUGAR LAND     CLEAR     54  48  80 NW6       29.90S
*HOUSTON EXEC  MOCLDY    54  48  82 NW3       29.93S
*CLEVELAND MUN CLEAR     49  48  96 CALM      29.90S
*WHARTON       CLEAR     53  48  84 W5        29.93S
*COLUMBUS      NOT AVBL
*EAGLE LAKE    SUNNY     55  51  83 W7        29.92S
$$

TXZ214>216-236>238-221100-
THE UPPER TEXAS COAST

CITY           SKY/WX    TMP DP  RH WIND       PRES   REMARKS
*ORANGE        CLEAR     58  53  84 NW5       29.89R
PORT ARTHUR    CLEAR     57  51  80 NW7       29.87S
GALVESTON      CLEAR     64  53  67 NW9       29.90R
ANGLETON       CLEAR     51  49  92 CALM      29.91R
*BAY CITY      CLEAR     52  49  90 W3        29.92R
PALACIOS       CLEAR     54  50  86 W6        29.93S
$$

TXZ229>234-239>247-221100-
TEXAS COASTAL BEND AND RIO GRANDE PLAINS

CITY           SKY/WX    TMP DP  RH WIND       PRES   REMARKS
VICTORIA       CLEAR     52  46  80 NW7       29.94S
*BEEVILLE      CLEAR     62  47  56 CALM      29.93F
ROCKPORT       CLEAR     51  49  92 CALM      29.93S
*PORT ARANSAS  CLEAR     60  57  88 CALM      29.92F
*PORT LAVACA   CLEAR     53  49  87 CALM      29.94S
*INGLESIDE     CLEAR     61  56  82 NW6       29.92S
CORPUS CHRISTI CLEAR     57  53  86 CALM      29.92F
CORPUS NAS     CLEAR     58  54  86 SW5       29.91F
*ROBSTOWN      CLEAR     57  50  78 CALM      29.93F
ALICE          CLEAR     49  43  80 NW3       29.93S
KINGSVILLE NAS CLEAR     53  46  77 SW6       29.93S
COTULLA        CLEAR     55  42  61 NW5       29.94S
*FAITH RANCH   CLEAR     50  45  81 CALM      29.95F
LAREDO         CLEAR     59  43  55 CALM      29.96S
$$

TXZ248>255-221100-
DEEP SOUTH TEXAS

CITY           SKY/WX    TMP DP  RH WIND       PRES   REMARKS
BROWNSVILLE    FOG       55  55 100 CALM      29.93S VSB 3/4
PORT ISABEL    CLEAR     54  54 100 SW5       29.92F FOG
*SOUTH PADRE   NOT AVBL
HARLINGEN      CLEAR     54  54 100 W6        29.93S
*HEBBRONVILLE  CLEAR     51  40  63 CALM      29.96S
MCALLEN        CLEAR     59  42  53 N3        29.95S
*WESLACO       CLEAR     54  50  85 NW3       29.94R
FALFURRIAS     CLEAR    N/A N/A N/A CALM      29.93S
EDINBURG       CLEAR     55  45  70 CALM      29.95F
*ZAPATA        CLEAR     55  38  53 CALM      29.95R
$$

TXZ213>215-236>238-242>244-246-247-251-254-255-221100-
CMAN STATIONS

STATION/POSITION TIME  TEMP    WIND        PRES    WAVE
                       AIR SEA DIR/SP/G            HT/PER
                 (UTC) (F)     (DEG/KT/KT) (MB)    (FT/S)
SABINE PASS      0930   60 68  300/  5/  7 1012.6
SEA RIM ST PARK  0900   57     310/  7/  9 1011.9
NORTH JETTY/GLS  0930   67 65  290/  7/  8   N/A
EAGLE POINT      0930   60 66  290/  3/  3 1012.1
MORGANS POINT    0930   62 66  280/  5/  7 1012.2
MISSION/ARANSAS  0900   65                 1014.0
PORT O`CONNOR    0930   60     280/  7/  9 1013.1
PORT ARANSAS     0900   66 67  230/  7/  8 1013.3
MALAQUITE BEACH  0930   65 68  230/  4/  5 1013.6
BAFFIN BAY       0930   67 68  230/  4/  5 1013.3
PORT ISABEL      0930   64 71  160/  3/  5 1013.4
$$

GMZ080-GMZ150>470-221100-
OFFSHORE BUOY REPORTS

STATION/POSITION TIME  TEMP    WIND        PRES    WAVE
                       AIR SEA DIR/SP/G            HT/PER
                 (UTC) (F)     (DEG/KT/KT) (MB)    (FT/S)
20 E GALVESTON   0850   66 65  300/  8/  8 1011.6    2/ 6
90 E PT ARANSAS  0850   69 69  310/  6/  6 1012.7    1/ 3
35 NE PT MANSFLD 0850   72     230/  8/  8 1012.7    1/ 7
200 E PT ISABEL  0850   73 75  330/ 14/ 17 1012.2    5/ 6
$$




USA.gov is the U.S. government's official web portal to all federal, state and local government web resources and services.